Location: Unspecified
(0.0000°N, 0.0000°E)
Time: 13:35:22
(UTC+00:00)

N. Korean satellite - Pass Details

Date: 28 November 2021
Orbit: 446 x 495 km, 97.3° (Epoch: 07 December)

Event Time Altitude Azimuth Distance (km) Brightness Sun altitude
Rises 04:45:44 0° 14° (NNE) 2,428 10.0 -14.5°
Reaches altitude 10° 04:47:45 10° 16° (NNE) 1,562 9.1 -14.0°
Maximum altitude 04:51:05 72° 101° (E) 473 6.6 -13.2°
Drops below altitude 10° 04:54:27 10° 186° (S) 1,581 9.4 -12.4°
Sets 04:56:30 0° 188° (S) 2,461 10.3 -12.0°
